Weather History for Hot Springs, VA

Change the Weather History Date:

Wednesday, February 20, 2013

  Actual Average Record
Temperature  
Mean Temperature 19 °F -  
Max Temperature 24 °F 36 °F 51 °F (1997)
Min Temperature 14 °F 22 °F 8 °F (2009)
Degree Days  
Heating Degree Days 46    
Moisture  
Dew Point 9 °F    
Average Humidity 67    
Maximum Humidity 79    
Minimum Humidity 58    
Precipitation  
Precipitation 0.00 in - - ()
Sea Level Pressure  
Sea Level Pressure 29.89 in    
Wind  
Wind Speed 22 mph (WNW)    
Max Wind Speed 26 mph    
Max Gust Speed 39 mph    
Visibility 10 miles    
Events      
Averages and records for this station are not official NWS values.
T = Trace of Precipitation, MM = Missing Value Source: NWS Daily Summary

Daily Weather History Graph

Daily Weather History Graph

Search for Another Location

Airport:

Trip Planner

Search our weather history database for the weather conditions in past years. The results will help you decide how hot, cold, wet, or windy it might be!

Date:

Astronomy

Feb. 20, 2013 Rise Set
Actual Time 7:02 AM EST 6:03 PM EST
Civil Twilight 6:36 AM EST 6:30 PM EST
Nautical Twilight 6:05 AM EST 7:01 PM EST
Astronomical Twilight 5:35 AM EST 7:31 PM EST
Moon 1:26 PM EST 3:18 AM EST
Length of Visible Light 11h 54m
Length of Day
11h 01m
Waxing Gibbous, 76% of the Moon is Illuminated
Feb 20
Waxing Gibbous
Feb 25
Full
Mar 4
Last Quarter
Mar 11
New
Mar 19
First Quarter

Hourly Weather History & Observations

Time (EST) Temp. Windchill Dew Point Humidity Pressure Visibility Wind Dir Wind Speed Gust Speed Precip Events Conditions
12:15 AM 23.0 °F 7.2 °F 10.4 °F 59% 29.81 in 10.0 mi West 23.0 mph 31.1 mph N/A   Mostly Cloudy
12:35 AM 21.2 °F 4.5 °F 10.4 °F 63% 29.81 in 10.0 mi West 24.2 mph 33.4 mph N/A   Mostly Cloudy
12:55 AM 21.2 °F 4.5 °F 10.4 °F 63% 29.81 in 10.0 mi West 24.2 mph 39.1 mph N/A   Mostly Cloudy
1:15 AM 21.2 °F 6.0 °F 12.2 °F 68% 29.81 in 10.0 mi West 19.6 mph 28.8 mph N/A   Overcast
1:35 AM 21.2 °F 4.2 °F 8.6 °F 58% 29.81 in 10.0 mi West 25.3 mph 36.8 mph N/A   Scattered Clouds
1:55 AM 19.4 °F 2.8 °F 10.4 °F 68% 29.81 in 10.0 mi West 21.9 mph 28.8 mph N/A   Scattered Clouds
2:15 AM 19.4 °F 3.2 °F 8.6 °F 63% 29.81 in 10.0 mi West 20.7 mph 38.0 mph N/A   Scattered Clouds
2:35 AM 19.4 °F 4.1 °F 10.4 °F 68% 29.81 in 10.0 mi West 18.4 mph 34.5 mph N/A   Scattered Clouds
2:55 AM 19.4 °F 3.2 °F 10.4 °F 68% 29.82 in 10.0 mi West 20.7 mph 27.6 mph N/A   Scattered Clouds
3:15 AM 17.6 °F 0.9 °F 10.4 °F 73% 29.81 in 10.0 mi West 20.7 mph 27.6 mph N/A   Scattered Clouds
3:35 AM 17.6 °F 0.9 °F 8.6 °F 68% 29.81 in 10.0 mi West 20.7 mph 33.4 mph N/A   Scattered Clouds
3:55 AM 17.6 °F 0.5 °F 8.6 °F 68% 29.80 in 10.0 mi West 21.9 mph 32.2 mph N/A   Scattered Clouds
4:15 AM 17.6 °F 0.9 °F 8.6 °F 68% 29.81 in 10.0 mi West 20.7 mph 29.9 mph N/A   Scattered Clouds
4:35 AM 17.6 °F -0.3 °F 8.6 °F 68% 29.81 in 10.0 mi West 24.2 mph 33.4 mph N/A   Scattered Clouds
4:55 AM 15.8 °F -3.1 °F 8.6 °F 73% 29.81 in 10.0 mi West 25.3 mph 38.0 mph N/A   Scattered Clouds
5:15 AM 15.8 °F -1.5 °F 8.6 °F 73% 29.82 in 10.0 mi West 20.7 mph 32.2 mph N/A   Clear
5:35 AM 15.8 °F -3.4 °F 6.8 °F 68% 29.82 in 10.0 mi West 26.5 mph 36.8 mph N/A   Clear
6:15 AM 15.8 °F -3.1 °F 8.6 °F 73% 29.83 in 10.0 mi West 25.3 mph 35.7 mph N/A   Overcast
6:35 AM 15.8 °F -2.3 °F 8.6 °F 73% 29.83 in 10.0 mi West 23.0 mph 34.5 mph N/A   Overcast
6:55 AM 14.0 °F -5.8 °F 8.6 °F 79% 29.83 in 10.0 mi WNW 26.5 mph 33.4 mph N/A   Mostly Cloudy
7:15 AM 14.0 °F -5.1 °F 8.6 °F 79% 29.84 in 10.0 mi West 24.2 mph 32.2 mph N/A   Scattered Clouds
7:35 AM 14.0 °F -5.5 °F 8.6 °F 79% 29.85 in 10.0 mi West 25.3 mph 29.9 mph N/A   Mostly Cloudy
7:55 AM 15.8 °F -2.3 °F 8.6 °F 73% 29.86 in 10.0 mi West 23.0 mph 34.5 mph N/A   Mostly Cloudy
8:15 AM 15.8 °F -3.1 °F 8.6 °F 73% 29.87 in 10.0 mi West 25.3 mph 32.2 mph N/A   Mostly Cloudy
8:55 AM 15.8 °F -2.7 °F 8.6 °F 73% 29.86 in 10.0 mi West 24.2 mph 28.8 mph N/A   Overcast
9:15 AM 17.6 °F 0.1 °F 8.6 °F 68% 29.87 in 10.0 mi WNW 23.0 mph 29.9 mph N/A   Mostly Cloudy
9:35 AM 17.6 °F 1.3 °F 8.6 °F 68% 29.87 in 10.0 mi West 19.6 mph 28.8 mph N/A   Mostly Cloudy
9:55 AM 17.6 °F 1.3 °F 8.6 °F 68% 29.87 in 10.0 mi West 19.6 mph 27.6 mph N/A   Scattered Clouds
10:15 AM 19.4 °F 2.5 °F 8.6 °F 63% 29.87 in 10.0 mi West 23.0 mph 32.2 mph N/A   Clear
10:35 AM 19.4 °F 1.8 °F 8.6 °F 63% 29.88 in 10.0 mi West 25.3 mph 32.2 mph N/A   Clear
10:55 AM 21.2 °F 6.8 °F 10.4 °F 63% 29.88 in 10.0 mi WNW 17.3 mph 25.3 mph N/A   Clear
11:15 AM 21.2 °F 5.6 °F 10.4 °F 63% 29.88 in 10.0 mi WNW 20.7 mph 29.9 mph N/A   Clear
11:35 AM 21.2 °F 5.2 °F 10.4 °F 63% 29.88 in 10.0 mi WNW 21.9 mph 29.9 mph N/A   Clear
11:55 AM 21.2 °F 4.9 °F 10.4 °F 63% 29.88 in 10.0 mi West 23.0 mph 29.9 mph N/A   Clear
12:15 PM 21.2 °F 4.5 °F 10.4 °F 63% 29.88 in 10.0 mi West 24.2 mph 31.1 mph N/A   Clear
12:35 PM 21.2 °F 5.6 °F 10.4 °F 63% 29.87 in 10.0 mi WNW 20.7 mph 33.4 mph N/A   Clear
12:55 PM 23.0 °F 9.2 °F 10.4 °F 59% 29.89 in 10.0 mi WNW 17.3 mph 28.8 mph N/A   Clear
1:15 PM 23.0 °F 8.3 °F 10.4 °F 59% 29.88 in 10.0 mi West 19.6 mph 28.8 mph N/A   Clear
1:35 PM 23.0 °F 8.0 °F 10.4 °F 59% 29.88 in 10.0 mi WNW 20.7 mph 31.1 mph N/A   Clear
1:55 PM 24.8 °F 10.3 °F 12.2 °F 59% 29.89 in 10.0 mi West 20.7 mph 26.5 mph N/A   Clear
2:15 PM 23.0 °F 8.0 °F 12.2 °F 63% 29.89 in 10.0 mi West 20.7 mph 29.9 mph N/A   Clear
2:35 PM 23.0 °F 7.2 °F 12.2 °F 63% 29.89 in 10.0 mi WNW 23.0 mph 27.6 mph N/A   Clear
2:55 PM 23.0 °F 8.3 °F 10.4 °F 59% 29.90 in 10.0 mi WNW 19.6 mph 32.2 mph N/A   Clear
3:15 PM 23.0 °F 8.3 °F 10.4 °F 59% 29.90 in 10.0 mi WNW 19.6 mph 29.9 mph N/A   Clear
3:35 PM 23.0 °F 9.2 °F 10.4 °F 59% 29.90 in 10.0 mi WNW 17.3 mph 27.6 mph N/A   Clear
3:55 PM 23.0 °F 8.7 °F 10.4 °F 59% 29.90 in 10.0 mi WNW 18.4 mph 28.8 mph N/A   Clear
4:15 PM 23.0 °F 6.9 °F 10.4 °F 59% 29.90 in 10.0 mi WNW 24.2 mph 33.4 mph N/A   Clear
4:35 PM 23.0 °F 7.2 °F 10.4 °F 59% 29.91 in 10.0 mi West 23.0 mph 28.8 mph N/A   Clear
4:55 PM 23.0 °F 8.7 °F 10.4 °F 59% 29.92 in 10.0 mi WNW 18.4 mph 28.8 mph N/A   Clear
5:15 PM 21.2 °F 5.2 °F 8.6 °F 58% 29.91 in 10.0 mi West 21.9 mph 33.4 mph N/A   Clear
5:35 PM 21.2 °F 6.0 °F 8.6 °F 58% 29.92 in 10.0 mi West 19.6 mph 27.6 mph N/A   Clear
5:55 PM 19.4 °F 2.5 °F 8.6 °F 63% 29.93 in 10.0 mi West 23.0 mph 29.9 mph N/A   Clear
6:15 PM 19.4 °F 4.1 °F 8.6 °F 63% 29.95 in 10.0 mi West 18.4 mph 27.6 mph N/A   Clear
6:35 PM 19.4 °F 4.1 °F 8.6 °F 63% 29.96 in 10.0 mi WNW 18.4 mph 27.6 mph N/A   Clear
6:55 PM 17.6 °F 2.2 °F 8.6 °F 68% 29.96 in 10.0 mi WNW 17.3 mph 31.1 mph N/A   Clear
7:15 PM 17.6 °F 2.7 °F 8.6 °F 68% 29.97 in 10.0 mi WNW 16.1 mph 25.3 mph N/A   Clear
7:35 PM 17.6 °F 0.9 °F 8.6 °F 68% 29.98 in 10.0 mi WNW 20.7 mph 28.8 mph N/A   Clear
7:55 PM 17.6 °F 1.7 °F 8.6 °F 68% 29.98 in 10.0 mi West 18.4 mph 25.3 mph N/A   Clear
8:15 PM 15.8 °F -2.7 °F 8.6 °F 73% 29.99 in 10.0 mi West 24.2 mph 31.1 mph N/A   Clear
8:35 PM 15.8 °F -2.7 °F 8.6 °F 73% 30.00 in 10.0 mi WNW 24.2 mph 29.9 mph N/A   Clear
8:55 PM 15.8 °F -3.4 °F 8.6 °F 73% 29.99 in 10.0 mi West 26.5 mph 32.2 mph N/A   Clear
9:15 PM 15.8 °F -3.4 °F 8.6 °F 73% 29.98 in 10.0 mi WNW 26.5 mph 36.8 mph N/A   Clear
9:35 PM 15.8 °F -2.7 °F 8.6 °F 73% 29.98 in 10.0 mi WNW 24.2 mph 35.7 mph N/A   Clear
9:55 PM 15.8 °F -2.7 °F 8.6 °F 73% 29.98 in 10.0 mi West 24.2 mph 31.1 mph N/A   Clear
10:15 PM 15.8 °F -1.1 °F 8.6 °F 73% 29.98 in 10.0 mi WNW 19.6 mph 31.1 mph N/A   Clear
10:35 PM 15.8 °F -2.3 °F 8.6 °F 73% 29.97 in 10.0 mi West 23.0 mph 33.4 mph N/A   Clear
10:55 PM 15.8 °F 0.9 °F 8.6 °F 73% 29.97 in 10.0 mi WNW 15.0 mph 24.2 mph N/A   Clear
11:15 PM 15.8 °F -2.3 °F 8.6 °F 73% 29.97 in 10.0 mi West 23.0 mph 29.9 mph N/A   Clear
11:35 PM 15.8 °F -1.1 °F 8.6 °F 73% 29.97 in 10.0 mi WNW 19.6 mph 26.5 mph N/A   Clear
11:55 PM 14.0 °F -2.5 °F 8.6 °F 79% 29.97 in 10.0 mi West 17.3 mph 23.0 mph N/A   Clear